{"data":{"norad_id":52538,"epoch":"2026-05-25T00:05:39.235776Z","epoch_age_seconds":78707,"freshness":"FRESH","line1":"1 52538U 22051F   26145.00392634 -.00002616  00000+0 -14633-3 0  9994","line2":"2 52538  53.2142 146.5322 0001004  94.3705 265.7402 15.08849344222961","mean_motion":15.08849344,"eccentricity":0.0001004,"inclination_deg":53.2142,"raan_deg":146.5322,"arg_perigee_deg":94.3705,"mean_anomaly_deg":265.7402,"bstar":-0.00014633,"rev_number":22296,"period_min":95.436963652217,"perigee_km":539.02027591807,"apogee_km":540.40938056518,"semimajor_km":6917.8518282416,"source":"CELESTRAK","updated_at":"2026-05-25T13:38:17.161890Z"}}